Weather History for Port Angeles, WA

Change the Weather History Date:

Sunday, December 1, 2013

  Actual Average Record
Temperature  
Mean Temperature 46 °F -  
Max Temperature 54 °F 47 °F 59 °F (1972)
Min Temperature 37 °F 36 °F 23 °F (1985)
Degree Days  
Heating Degree Days 18    
Moisture  
Dew Point 43 °F    
Average Humidity 87    
Maximum Humidity 100    
Minimum Humidity 72    
Precipitation  
Precipitation 0.37 in - - ()
Sea Level Pressure  
Sea Level Pressure 29.84 in    
Wind  
Wind Speed 6 mph (West)    
Max Wind Speed 22 mph    
Max Gust Speed 34 mph    
Visibility 8 miles    
Events Fog , Rain    
Averages and records for this station are not official NWS values.
T = Trace of Precipitation, MM = Missing Value Source: NWS Daily Summary

Daily Weather History Graph

Daily Weather History Graph

Search for Another Location

Airport:

Trip Planner

Search our weather history database for the weather conditions in past years. The results will help you decide how hot, cold, wet, or windy it might be!

Date:

Astronomy

Dec. 01, 2013 Rise Set
Actual Time 7:43 AM PST 4:22 PM PST
Civil Twilight 7:08 AM PST 4:58 PM PST
Nautical Twilight 6:28 AM PST 5:37 PM PST
Astronomical Twilight 5:51 AM PST 6:14 PM PST
Moon 6:02 AM PST (12/1) 3:41 PM PST (12/1)
Length of Visible Light 9h 50m
Length of Day
8h 38m
Waning Crescent, 2% of the Moon is Illuminated
Dec 1
Waning Crescent
Dec 2
New
Dec 9
First Quarter
Dec 17
Full
Dec 25
Last Quarter

Hourly Weather History & Observations

Time (PST) Temp. Windchill Dew Point Humidity Pressure Visibility Wind Dir Wind Speed Gust Speed Precip Events Conditions
12:53 AM 46.0 °F - 44.1 °F 93% 30.01 in 6.0 mi Calm Calm - 0.03 in Rain Light Rain
1:53 AM 46.0 °F - 45.0 °F 96% 29.94 in 7.0 mi Calm Calm - 0.02 in Rain Light Rain
2:53 AM 45.0 °F - 44.1 °F 97% 29.89 in 6.0 mi Calm Calm - 0.01 in   Overcast
2:59 AM 46.0 °F - 44.1 °F 93% 29.89 in 1.8 mi Calm Calm - N/A   Overcast
3:09 AM 45.0 °F - 45.0 °F 100% 29.89 in 0.5 mi Calm Calm - N/A Fog Fog
3:43 AM 46.0 °F - 45.0 °F 96% 29.87 in 1.2 mi Calm Calm - 0.03 in Rain Light Rain
3:48 AM 46.4 °F - 44.6 °F 93% 29.87 in 3.0 mi Calm Calm - 0.04 in Rain Light Rain
3:53 AM 46.0 °F 44.8 °F 44.1 °F 93% 29.87 in 6.0 mi Variable 3.5 mph - 0.04 in Rain Light Rain
4:53 AM 46.0 °F - 45.0 °F 96% 29.86 in 8.0 mi Calm Calm - 0.02 in Rain Light Rain
5:28 AM 46.0 °F - 45.0 °F 96% 29.85 in 2.0 mi Calm Calm - 0.01 in Rain Light Rain
5:40 AM 46.0 °F 43.1 °F 45.0 °F 96% 29.84 in 5.0 mi South 5.8 mph - 0.01 in   Overcast
5:53 AM 48.0 °F - 46.9 °F 96% 29.81 in 10.0 mi SSW 6.9 mph - 0.01 in   Mostly Cloudy
6:53 AM 53.1 °F - 48.0 °F 83% 29.83 in 10.0 mi West 15.0 mph - N/A   Mostly Cloudy
7:53 AM 52.0 °F - 48.0 °F 86% 29.87 in 10.0 mi WNW 19.6 mph 31.1 mph N/A   Overcast
8:53 AM 53.1 °F - 45.0 °F 74% 29.88 in 10.0 mi WNW 13.8 mph - 0.00 in   Overcast
9:53 AM 53.1 °F - 45.0 °F 74% 29.88 in 10.0 mi West 12.7 mph 21.9 mph 0.00 in   Overcast
10:53 AM 53.1 °F - 46.0 °F 77% 29.87 in 10.0 mi West 12.7 mph 18.4 mph 0.01 in   Mostly Cloudy
11:53 AM 54.0 °F - 45.0 °F 72% 29.86 in 10.0 mi SW 10.4 mph - N/A   Overcast
12:53 PM 52.0 °F - 46.0 °F 80% 29.85 in 10.0 mi West 8.1 mph - 0.01 in Rain Light Rain
1:53 PM 51.1 °F - 46.9 °F 86% 29.81 in 10.0 mi Calm Calm - 0.00 in   Overcast
2:53 PM 51.1 °F - 45.0 °F 80% 29.80 in 10.0 mi WSW 6.9 mph - 0.01 in   Overcast
3:53 PM 50.0 °F - 44.1 °F 80% 29.79 in 10.0 mi SW 4.6 mph - 0.00 in Rain Light Rain
4:44 PM 48.9 °F - 45.0 °F 86% 29.77 in 9.0 mi NW 15.0 mph 24.2 mph 0.02 in Rain Light Rain
4:53 PM 48.0 °F - 46.0 °F 93% 29.78 in 6.0 mi NW 11.5 mph 24.2 mph 0.04 in Rain Light Rain
5:09 PM 48.0 °F - 46.0 °F 93% 29.78 in 7.0 mi West 15.0 mph 19.6 mph 0.03 in Rain Light Rain
5:20 PM 48.0 °F - 45.0 °F 89% 29.77 in 5.0 mi WNW 13.8 mph 24.2 mph 0.06 in Rain Rain
5:53 PM 46.0 °F 39.3 °F 43.0 °F 89% 29.77 in 8.0 mi NW 16.1 mph 25.3 mph 0.07 in Rain Light Rain
6:53 PM 45.0 °F 38.2 °F 41.0 °F 86% 29.75 in 10.0 mi WNW 15.0 mph 25.3 mph 0.02 in Rain Light Rain
7:53 PM 45.0 °F 38.2 °F 39.9 °F 82% 29.76 in 10.0 mi NW 15.0 mph - 0.03 in Rain Light Rain
8:53 PM 42.1 °F 34.5 °F 37.9 °F 85% 29.79 in 10.0 mi WNW 15.0 mph 29.9 mph 0.02 in Rain Light Rain
9:20 PM 42.1 °F 32.8 °F 36.0 °F 79% 29.79 in 7.0 mi West 21.9 mph 34.5 mph 0.03 in Rain Light Rain
9:32 PM 41.0 °F 33.5 °F 37.0 °F 86% 29.79 in 10.0 mi WNW 13.8 mph 25.3 mph 0.03 in Rain Light Rain
9:53 PM 41.0 °F 33.5 °F 35.1 °F 79% 29.80 in 10.0 mi West 13.8 mph - 0.03 in Rain Light Rain
10:53 PM 39.9 °F 31.4 °F 32.0 °F 73% 29.81 in 10.0 mi WNW 16.1 mph 23.0 mph 0.00 in   Mostly Cloudy
11:53 PM 37.9 °F 29.2 °F 33.1 °F 83% 29.84 in 10.0 mi WNW 15.0 mph - 0.00 in   Scattered Clouds